Regional Weather Roundup
Issued by NWS

Home | Current Version | Previous Version | Text Only | Print | Product List | Glossary Off
Versions: 1 2 3 4 5 6 7 8 9 10 11 12 13 14 15 16 17 18 19 20 21 22 23 24 25 26 27 28 29 30 31 32 33 34 35 36 37 38 39 40 41 42 43 44 45 46 47 48 49 50

000
ASUS43 KFSD 220410
RWRSD

WEATHER ROUNDUP FOR SOUTH DAKOTA
NATIONAL WEATHER SERVICE SIOUX FALLS SD
1100 PM CDT SUN MAY 21 2017

NOTE: "FAIR" INDICATES FEW OR NO CLOUDS BELOW 12,000 FEET WITH NO
SIGNIFICANT WEATHER AND/OR OBSTRUCTIONS TO VISIBILITY.


SDZ001>005-009-010-012>017-220500-
NORTHWEST AND NORTH CENTRAL SOUTH DAKOTA

CITY           SKY/WX    TMP DP  RH WIND       PRES   REMARKS
BUFFALO          N/A     46  44  93 W8        30.00S
FAITH            N/A     50  42  74 W12       30.01F
MOBRIDGE       PTCLDY    52  42  69 N10       29.93R
$$

SDZ012>016-024>037-041>051-057-063-072>074-220500-
SOUTHWEST AND SOUTH CENTRAL SOUTH DAKOTA

CITY           SKY/WX    TMP DP  RH WIND       PRES   REMARKS
RAPID CTY ARPT PTCLDY    48  41  76 NW13      30.10S
PIERRE         CLEAR     56  41  57 W9        29.98R
CUSTER         CLOUDY    45  31  58 NW7       30.17R
ELLSWORTH AFB  PTCLDY    48  44  85 W10       30.09F
PHILIP         PTCLDY    47  43  86 W6        30.05R
PINE RIDGE     CLEAR     46  44  93 SW5       30.13R
SPEARFISH      FAIR      48  39  71 W9        30.13F
WINNER         MOCLDY    55  45  68 W8        30.02R
$$

SDZ004>011-016>023-039-040-220500-
NORTHEAST SOUTH DAKOTA

CITY           SKY/WX    TMP DP  RH WIND       PRES   REMARKS
ABERDEEN       MOCLDY    47  42  83 S7        29.95R
WATERTOWN      PTCLDY    44  41  89 E3        29.94F
BROOKINGS      PTCLDY    47  43  86 E3        29.96S
SISSETON         N/A     47  41  80 W8        29.92S
$$

SDZ017-020-022-023-036>040-048>070-220500-
SOUTHEAST SOUTH DAKOTA

CITY           SKY/WX    TMP DP  RH WIND       PRES   REMARKS
SIOUX FALLS    PTCLDY    51  45  79 S7        29.96F
HURON          CLEAR     50  45  83 E3        29.92F
CHAMBERLAIN    CLEAR     54  45  71 SW9       29.98R
MITCHELL       CLOUDY    58  42  55 SW12      29.95S
YANKTON        CLEAR     53  43  68 SE7       29.99F
$$

ABBREVIATIONS USED IN REMARKS
   TC - TEMPERATURE IN CELSIUS
  WCI - WIND CHILL INDEX
   HX - HEAT INDEX
  VSB - VISIBILITY





USA.gov is the U.S. government's official web portal to all federal, state and local government web resources and services.